Simultaneous Nadir Overpasses (SNOs) Predictions

Prediction of SNOs between AQUA and METOP-C Satellite Orbit:

Table of predicted SNOs for the next 14.0 days since TLE Epoch: 2/17/2024
Index Date (AQUA) Time (AQUA) Lat,Lon (AQUA) SZA (AQUA ) Date (METOP-C) Time (METOP-C) Lat,Lon (METOP-C) SZA (METOP-C ) Distance(km) Time Diff (sec)
1 02/18/2024 17:57:06 -74.70, 89.23 93.71 02/18/2024 17:55:58 -74.66, 87.10 93.68 62.73 68
2 02/18/2024 18:46:38 75.10,-104.18 86.71 02/18/2024 18:46:28 75.11,-104.31 86.72 3.92 10
3 02/18/2024 19:36:02 -75.21, 63.19 93.20 02/18/2024 19:37:08 -75.22, 63.33 93.20 4.04 66
4 02/21/2024 10:58:24 75.12, 12.86 85.77 02/21/2024 10:58:07 75.12, 12.80 85.77 1.66 17
5 02/21/2024 11:47:47 -75.18,-179.63 94.19 02/21/2024 11:48:48 -75.19,-179.68 94.18 1.98 61
6 02/24/2024 03:10:09 75.13, 129.94 84.80 02/24/2024 03:09:47 75.12, 129.89 84.80 2.03 22
7 02/24/2024 03:59:32 -75.18, -62.53 95.16 02/24/2024 04:00:28 -75.19, -62.57 95.15 2.03 56
8 02/26/2024 19:21:52 75.13,-112.93 83.80 02/26/2024 19:21:26 75.16,-112.92 83.84 3.55 26
9 02/26/2024 20:11:16 -75.22, 54.47 96.12 02/26/2024 20:12:08 -75.19, 54.50 96.15 3.35 52
10 02/29/2024 11:33:34 75.16, 4.11 82.82 02/29/2024 11:33:06 75.14, 4.11 82.81 2.02 28
11 02/29/2024 12:22:57 -75.20, 171.66 97.16 02/29/2024 12:23:47 -75.22, 171.67 97.13 2.99 50



Historial Predications of SNOs between AQUA and METOP-C
